CW0990 Morioka JP current weather conditions

sailwx.info

Wind from 112

Air temperature -4.4° C
Dewpoint -7.9° C

Last reported at 2020-Jan-17 18:04 UTC.
Time now 2020-Jan-17 19:03 UTC

Location: N 39°01' E 141°00'.
View on Google Maps.

See reports from other nearby stations

  
Tides and Currents Weather Stations Pressure Air Temp Water Temp Dewpoint Dewpoint Depression Visibility Wind Speed Wind Dir Waves Ship Positions
date/time (UTC)wind fromknots sea level pressurealtimeterstation pressurevisibilityair tempwater tempwave heightnotes
2020-Jan-17 18:04 112 -4.4
2020-Jan-17 17:56 112 -4.4
2020-Jan-17 17:47 112 -3.9
2020-Jan-17 17:39 112 -3.9
2020-Jan-17 17:31 112 -3.9
2020-Jan-17 17:22 112 -3.3
2020-Jan-17 17:14 180 -3.3
2020-Jan-17 17:06 114 0 gusting 1 -3.3
2020-Jan-17 16:57 117 -3.3
2020-Jan-17 16:49 135 0 gusting 0 -3.3
2020-Jan-17 16:41 112 -3.3
2020-Jan-17 16:32 074 0 gusting 0 -3.3
2020-Jan-17 16:24 112 -3.3
2020-Jan-17 16:16 059 0 gusting 1 -3.9
2020-Jan-17 16:07 041 0 gusting 0 -3.9
2020-Jan-17 15:59 090 -3.9
2020-Jan-17 15:51 068 -3.9
2020-Jan-17 15:42 090 -3.9
2020-Jan-17 15:34 105 -3.9
2020-Jan-17 15:26 068 -3.9
2020-Jan-17 15:17 158 -3.3
2020-Jan-17 15:09 112 -3.3
2020-Jan-17 15:01 112 -2.8
2020-Jan-17 14:52 086 0 gusting 0 -3.3
2020-Jan-17 14:44 158 -2.8
2020-Jan-17 14:36 098 -2.8
2020-Jan-17 14:27 064 -2.8
2020-Jan-17 14:19 032 -2.8
2020-Jan-17 14:11 138 -2.8
2020-Jan-17 14:02 135 -2.2
2020-Jan-17 13:54 064 -2.2
2020-Jan-17 13:46 090 -2.2
2020-Jan-17 13:37 158 -2.2
2020-Jan-17 13:29 057 -2.2
2020-Jan-17 13:21 112 -2.2
2020-Jan-17 13:12 112 -2.2
2020-Jan-17 13:04 135 -2.2
2020-Jan-17 12:56 135 -2.2
2020-Jan-17 12:47 202 -2.2
2020-Jan-17 12:39 202 -2.2
2020-Jan-17 12:31 012 -2.2
2020-Jan-17 12:22 090 -2.2
2020-Jan-17 12:14 149 -2.2
2020-Jan-17 12:06 158 -2.2
2020-Jan-17 11:57 049 -2.2
2020-Jan-17 11:49 109 -2.2
2020-Jan-17 11:41 101 -1.7
2020-Jan-17 11:32 090 -1.7
2020-Jan-17 11:24 089 -2.2
2020-Jan-17 11:16 083 0 -2.2
2020-Jan-17 11:07 087 0 gusting 0 -1.7
2020-Jan-17 10:59 065 -1.7
2020-Jan-17 10:51 073 -1.7
2020-Jan-17 10:42 112 -1.7
2020-Jan-17 10:34 025 -1.1
2020-Jan-17 10:26 112 -1.1
2020-Jan-17 10:17 158 -1.1
2020-Jan-17 10:09 158 -0.6
2020-Jan-17 10:01 112 -0.6
2020-Jan-17 09:52 112 -0.0
2020-Jan-17 09:44 112 -0.0
2020-Jan-17 09:36 090 -0.0
2020-Jan-17 09:27 135 0.6
2020-Jan-17 09:19 311 0 gusting 1 0.6
2020-Jan-17 09:11 002 0 gusting 0 0.6
2020-Jan-17 09:02 112 1 gusting 2 0.6
2020-Jan-17 08:54 176 2 gusting 5 0.6
2020-Jan-17 08:46 158 0.6
2020-Jan-17 08:37 112 0.6
2020-Jan-17 08:29 135 1.1
2020-Jan-17 08:21 270 1.1
2020-Jan-17 08:12 135 1.1
2020-Jan-17 08:04 115 0 gusting 0 1.1
2020-Jan-17 07:56 109 1.1
2020-Jan-17 07:47 094 0 gusting 1 1.7
2020-Jan-17 07:39 345 1 gusting 1 1.7
2020-Jan-17 07:31 056 2 gusting 4 1.7
2020-Jan-17 07:22 112 2.2
2020-Jan-17 07:14 112 2.2
2020-Jan-17 07:06 112 2.8
2020-Jan-17 06:57 225 3.3
2020-Jan-17 06:49 112 3.3
2020-Jan-17 06:41 270 0 gusting 1 3.9
2020-Jan-17 06:32 135 0 gusting 0 3.9
2020-Jan-17 06:24 111 3.3
2020-Jan-17 06:16 253 0 gusting 0 3.9
2020-Jan-17 06:07 304 1 gusting 5 3.9
2020-Jan-17 05:59 134 0 gusting 1 4.4
2020-Jan-17 05:51 274 0 gusting 4 3.3
2020-Jan-17 05:42 263 3.9
2020-Jan-17 05:34 225 5.0
2020-Jan-17 05:26 270 4.4
2020-Jan-17 05:17 290 1 gusting 1 4.4
2020-Jan-17 05:09 243 4 gusting 2 3.9
2020-Jan-17 05:01 217 0 gusting 1 4.4
2020-Jan-17 04:52 119 0 gusting 4 5.0
2020-Jan-17 04:44 011 2 gusting 5 5.6
2020-Jan-17 04:36 162 0 gusting 4 6.7
2020-Jan-17 04:27 255 0 gusting 2 6.1
2020-Jan-17 04:19 300 1 gusting 2 6.1
2020-Jan-17 04:11 264 1 gusting 2 6.1
2020-Jan-17 04:02 215 5.6
2020-Jan-17 03:54 284 0 gusting 5 6.7
2020-Jan-17 03:46 356 2 gusting 5 7.8
2020-Jan-17 03:37 254 1 gusting 2 7.8
2020-Jan-17 03:29 286 1 gusting 2 6.7
2020-Jan-17 03:21 165 0 gusting 1 7.2
2020-Jan-17 03:12 076 4 gusting 5 8.3
2020-Jan-17 03:04 155 6.7
2020-Jan-17 02:56 240 1 gusting 2 7.2
2020-Jan-17 02:47 135 0 gusting 1 7.2
2020-Jan-17 02:39 272 1 gusting 1 6.7
2020-Jan-17 02:31 236 0 gusting 2 6.1
2020-Jan-17 02:22 306 2 gusting 4 6.7
2020-Jan-17 02:14 192 2 gusting 1 5.6
2020-Jan-17 02:06 101 4 gusting 4 5.6
2020-Jan-17 01:57 098 2 gusting 5 5.0
2020-Jan-17 01:49 151 1 gusting 2 5.0
2020-Jan-17 01:41 258 1 gusting 4 5.0
2020-Jan-17 01:32 149 0 gusting 1 4.4
2020-Jan-17 01:24 112 1 gusting 2 4.4
2020-Jan-17 01:16 107 1 gusting 1 5.0
2020-Jan-17 01:07 152 1 gusting 2 5.0
2020-Jan-17 00:59 122 1 gusting 1 3.9
2020-Jan-17 00:51 180 3.3
2020-Jan-17 00:42 195 2.8
2020-Jan-17 00:34 157 2.8
2020-Jan-17 00:26 120 2.2
2020-Jan-17 00:17 158 1.1
2020-Jan-17 00:09 196 1.1
2020-Jan-17 00:01 135 1.1
2020-Jan-16 23:52 048 -0.0
2020-Jan-16 23:44 158 -0.0
2020-Jan-16 23:36 112 -0.6
2020-Jan-16 23:27 043 -1.1
2020-Jan-16 23:19 022 1 gusting 1 -1.7
2020-Jan-16 23:11 082 0 gusting 1 -2.2
2020-Jan-16 23:02 091 -2.2
2020-Jan-16 22:54 058 1 gusting 1 -2.8
2020-Jan-16 22:46 158 -2.8
2020-Jan-16 22:37 123 -2.8
2020-Jan-16 22:29 075 -2.8
2020-Jan-16 22:21 135 -2.2
2020-Jan-16 22:12 046 1 gusting 1 -2.2
2020-Jan-16 22:04 121 1 gusting 1 -2.2
2020-Jan-16 21:56 108 -2.2
2020-Jan-16 21:47 102 -2.2
2020-Jan-16 21:39 180 2 gusting 2 -1.7
2020-Jan-16 21:31 122 -2.2
2020-Jan-16 21:22 114 0 gusting 1 -2.2
2020-Jan-16 21:14 158 0 gusting 0 -2.2
2020-Jan-16 21:06 158 -2.8
2020-Jan-16 20:57 145 0 gusting 0 -2.2
2020-Jan-16 20:49 067 0 gusting 1 -2.2
2020-Jan-16 20:41 133 -2.2
2020-Jan-16 20:32 112 0 gusting 1 -2.2
2020-Jan-16 20:24 158 -2.2
2020-Jan-16 20:16 112 1 gusting 1 -1.7
2020-Jan-16 20:07 162 1 gusting 1 -1.7
2020-Jan-16 19:59 133 0 gusting 2 -1.7
2020-Jan-16 19:51 106 -1.7
2020-Jan-16 19:42 090 -2.2
2020-Jan-16 19:34 063 -2.2
2020-Jan-16 19:26 135 -2.2
2020-Jan-16 19:17 180 -2.2
2020-Jan-16 19:09 180 -2.2
2020-Jan-16 19:01 079 -2.2
2020-Jan-16 18:52 052 -2.2
2020-Jan-16 18:44 084 -2.2
2020-Jan-16 18:36 011 -2.2
2020-Jan-16 18:27 112 -1.7
2020-Jan-16 18:19 248 -1.7
2020-Jan-16 18:11 282 0 gusting 2 -1.7
2020-Jan-16 18:02 152 0 gusting 0 -1.7
2020-Jan-16 17:54 071 -2.2
2020-Jan-16 17:46 158 -1.7
2020-Jan-16 17:37 090 -1.7
2020-Jan-16 17:29 083 -1.7
2020-Jan-16 17:21 132 -1.7
2020-Jan-16 17:12 050 -1.7
2020-Jan-16 17:04 097 -1.1
2020-Jan-16 16:56 158 -1.1
2020-Jan-16 16:47 102 -1.1
2020-Jan-16 16:39 068 -1.1
2020-Jan-16 16:31 135 -1.1
2020-Jan-16 16:22 135 -1.1
2020-Jan-16 16:14 107 -1.7
2020-Jan-16 16:06 052 -1.7
2020-Jan-16 15:57 098 0 gusting 0 -1.7
2020-Jan-16 15:49 045 -1.7
2020-Jan-16 15:41 101 -1.7
2020-Jan-16 15:32 158 -1.7
2020-Jan-16 15:24 115 -1.7
2020-Jan-16 15:16 090 -1.7
2020-Jan-16 15:07 135 -1.7
2020-Jan-16 14:59 080 -1.7
2020-Jan-16 14:51 112 -1.7
2020-Jan-16 14:42 112 -1.7
2020-Jan-16 14:34 039 -1.7
2020-Jan-16 14:26 024 -1.1
2020-Jan-16 14:17 079 -1.1
2020-Jan-16 14:09 090 -1.1
2020-Jan-16 14:01 090 -1.1
2020-Jan-16 13:52 107 -1.1
2020-Jan-16 13:44 109 -1.1
2020-Jan-16 13:36 112 -1.1
2020-Jan-16 13:27 075 -1.7
2020-Jan-16 13:19 112 -1.1
2020-Jan-16 13:11 053 -1.7
2020-Jan-16 13:02 080 -1.7
2020-Jan-16 12:54 090 -1.7
2020-Jan-16 12:46 112 -1.1
2020-Jan-16 12:37 090 -1.1
2020-Jan-16 12:29 055 -1.1
2020-Jan-16 12:21 090 -0.6
2020-Jan-16 12:12 038 -0.6
2020-Jan-16 12:04 328 -0.6
2020-Jan-16 11:56 112 -0.6
2020-Jan-16 11:47 087 -0.6
2020-Jan-16 11:39 073 -0.6
2020-Jan-16 11:31 089 -0.0
2020-Jan-16 11:22 063 -0.0
2020-Jan-16 11:14 165 -0.0
2020-Jan-16 11:06 292 -0.0
2020-Jan-16 10:57 094 -0.0
2020-Jan-16 10:49 112 -0.0
2020-Jan-16 10:41 090 -0.0
2020-Jan-16 10:32 338 -0.0
2020-Jan-16 10:24 102 -0.0
2020-Jan-16 10:16 090 -0.0
2020-Jan-16 10:07 094 -0.0
2020-Jan-16 09:59 040 -0.0
2020-Jan-16 09:51 058 -0.0
2020-Jan-16 09:42 090 0.6
2020-Jan-16 09:34 111 0.6
2020-Jan-16 09:26 225 0.6
2020-Jan-16 09:17 135 0.6
2020-Jan-16 09:09 135 0.6
2020-Jan-16 09:01 129 0.6
2020-Jan-16 08:52 202 0.6
2020-Jan-16 08:44 180 0.6
2020-Jan-16 08:36 072 0.6
2020-Jan-16 08:27 088 0.6
2020-Jan-16 08:19 035 0.6
2020-Jan-16 08:11 103 0.6
2020-Jan-16 08:02 112 0.6
2020-Jan-16 07:54 112 1.1
2020-Jan-16 07:46 112 1.1
2020-Jan-16 07:37 248 1.1
2020-Jan-16 07:29 248 1.1
2020-Jan-16 07:21 248 1.1
2020-Jan-16 07:12 248 1.1
2020-Jan-16 07:04 248 1.1
2020-Jan-16 06:56 187 0 gusting 0 1.1
2020-Jan-16 06:47 225 0 gusting 0 1.1
2020-Jan-16 06:39 112 1.1
2020-Jan-16 06:31 049 1.7
2020-Jan-16 06:22 112 1.7
2020-Jan-16 06:14 112 1.7
2020-Jan-16 06:06 112 1.7
2020-Jan-16 05:57 112 1.7
2020-Jan-16 05:49 135 1.7
2020-Jan-16 05:41 135 2.2
2020-Jan-16 05:32 135 2.2
2020-Jan-16 05:24 230 2.2
2020-Jan-16 05:16 248 2.8
2020-Jan-16 05:07 135 2.8
2020-Jan-16 04:59 2.2
2020-Jan-16 04:51 132 1 gusting 4 2.2
2020-Jan-16 04:42 094 2.2
2020-Jan-16 04:34 112 2.2
2020-Jan-16 04:26 158 2.2
2020-Jan-16 04:17 149 0 gusting 1 2.2
2020-Jan-16 04:09 155 1.7
2020-Jan-16 04:01 270 1.7
2020-Jan-16 03:52 135 2.2
2020-Jan-16 03:44 357 2.2
2020-Jan-16 03:36 157 2.8
2020-Jan-16 03:27 180 2.8
2020-Jan-16 03:19 158 2.2
2020-Jan-16 03:11 158 2.2
2020-Jan-16 03:02 262 2.2
2020-Jan-16 02:54 096 2.8
2020-Jan-16 02:46 202 0 gusting 0 3.9
2020-Jan-16 02:37 153 2.2
2020-Jan-16 02:29 122 1 gusting 1 1.7
2020-Jan-16 02:21 158 0 gusting 0 1.1
2020-Jan-16 02:12 158 1 gusting 1 2.2
2020-Jan-16 02:04 135 0 gusting 1 2.8
2020-Jan-16 01:56 270 1 gusting 0 2.2
2020-Jan-16 01:47 132 2.2
2020-Jan-16 01:39 185 2 gusting 5 2.2
2020-Jan-16 01:31 072 2 gusting 4 2.2
2020-Jan-16 01:22 127 1 gusting 1 2.8
2020-Jan-16 01:14 279 2 gusting 4 1.7
2020-Jan-16 01:06 336 1.7
2020-Jan-16 00:57 110 1 gusting 4 1.7
2020-Jan-16 00:49 338 1 gusting 2 1.7
2020-Jan-16 00:41 180 1.7
2020-Jan-16 00:32 112 1.1
2020-Jan-16 00:24 122 2 gusting 5 1.1
2020-Jan-16 00:16 202 1.1
2020-Jan-16 00:07 180 0 gusting 0 1.1
2020-Jan-15 23:59 135 0 gusting 0 1.1
2020-Jan-15 23:51 090 0.6
2020-Jan-15 23:42 158 0.6
2020-Jan-15 23:34 158 0 gusting 0 -0.0
2020-Jan-15 23:26 112 -0.0
2020-Jan-15 23:17 112 -1.1
2020-Jan-15 23:09 112 -1.1
2020-Jan-15 23:01 090 -1.1
2020-Jan-15 22:52 322 0 gusting 1 -1.7
2020-Jan-15 22:44 090 -1.7
2020-Jan-15 22:36 090 -1.7
2020-Jan-15 22:27 068 -1.7
2020-Jan-15 22:19 112 -1.7
2020-Jan-15 22:11 100 -1.7
2020-Jan-15 22:02 115 -1.7
2020-Jan-15 21:54 066 0 gusting 1 -2.2
2020-Jan-15 21:46 202 -1.7
2020-Jan-15 21:37 112 -2.2
2020-Jan-15 21:29 135 0 gusting 0 -2.2
2020-Jan-15 21:21 135 -1.7
2020-Jan-15 21:12 135 -1.7
2020-Jan-15 21:04 020 1 gusting 2 -1.7
2020-Jan-15 20:56 120 -1.7
2020-Jan-15 20:47 135 -1.7
2020-Jan-15 20:39 112 -1.7
2020-Jan-15 20:31 135 -1.7
2020-Jan-15 20:22 163 -1.1
2020-Jan-15 20:14 135 -1.1
2020-Jan-15 20:06 062 1 gusting 2 -1.1
2020-Jan-15 19:57 248 0 gusting 0 -1.1
2020-Jan-15 19:49 076 -1.1
2020-Jan-15 19:41 248 0 gusting 0 -1.1
2020-Jan-15 19:32 088 1 gusting 1 -1.1
2020-Jan-15 19:24 273 4 gusting 5 -0.6
2020-Jan-15 19:16 278 7 gusting 10 -0.6
2020-Jan-15 19:07 341 6 gusting 10 -1.1